Flag for Germany Weather past 2 weeks in Naumburg (Saale), Saxony-Anhalt, Germany

Now
40 °F

Clear.


Feels Like: 36 °F
Forecast: 35 / 62 °F
Wind: 5 mph from North

Location: Gera-Leumnitz

Current Time: Apr 22, 2015 at 4:17:21 AM

Latest Report: Apr 22, 2015 at 4:00 AM


Visibility: 11 mi

Pressure: 30.35 "Hg

Humidity: 77%

Dew point: 33 °F

Location of Naumburg (Saale)Location

Historic Weather in Naumburg (Saale) — Graph

°F

Naumburg (Saale) temperature yesterday

Maximum temperature yesterday: 68 °F (at 5:00 PM)
Minimum temperature yesterday: 36 °F (at 7:00 AM)
Average temperature yesterday: 53 °F

Past Weeks' High & Low Weather Summary

 TemperatureHumidityPressure
High72 °F (Apr 15, 5:00 PM)91% (Apr 7, 6:00 AM)30.63 "Hg (Apr 7, 6:00 AM)
Low27 °F (Apr 7, 6:00 AM)20% (Apr 21, 6:00 PM)29.89 "Hg (Apr 15, 7:00 PM)
Average49 °F63%30.25 "Hg
* Reported Apr 7 3:00 AM — Apr 22 3:00 AM, Naumburg (Saale), Weather by CustomWeather, © 2015

Note: Actual official high and low records may vary slightly from our data, if they occured in-between our weather recording intervals... More about our weather records

Advertising

Naumburg (Saale) weather history for previous 24 hours

 ConditionsComfort  
Time TempWeatherWind HumidityBarometerVisibility
3:00 AM
Wed, Apr 22
43 °FClear.3 mph60%30.34 "Hg31 mi
2:00 AM46 °FClear.2 mph54%30.34 "Hg43 mi
1:00 AM48 °FClear.2 mph48%30.34 "Hg43 mi
12:00 AM51 °FPassing clouds.3 mph39%30.33 "Hg43 mi
11:00 PM
Tue, Apr 21
52 °FClear.2 mph40%30.32 "Hg43 mi
10:00 PM54 °FClear.3 mph41%30.32 "Hg43 mi
9:00 PM56 °FPassing clouds.3 mph42%30.30 "Hg37 mi
8:00 PM60 °FPassing clouds.5 mph35%30.27 "Hg37 mi
7:00 PM63 °FPassing clouds.7 mph29%30.26 "Hg37 mi
6:00 PM66 °FPassing clouds.7 mph20%30.25 "Hg37 mi
5:00 PM68 °FPassing clouds.8 mph24%30.25 "Hg37 mi
4:00 PM67 °FPassing clouds.9 mph27%30.26 "Hg37 mi
3:00 PM66 °FPassing clouds.8 mph32%30.28 "Hg37 mi
2:00 PM65 °FPassing clouds.7 mph32%30.30 "Hg37 mi
1:00 PM63 °FPassing clouds.7 mph35%30.33 "Hg37 mi
12:00 PM59 °FPassing clouds.7 mph39%30.34 "Hg43 mi
11:00 AM56 °FPassing clouds.6 mph47%30.35 "Hg37 mi
10:00 AM53 °FPassing clouds.3 mph60%30.36 "Hg37 mi
9:00 AM48 °FPassing clouds.3 mph67%30.37 "Hg40 mi
8:00 AM42 °FPassing clouds.3 mph78%30.38 "Hg43 mi
7:00 AM36 °FPassing clouds.5 mph90%30.39 "Hg47 mi
6:00 AM36 °FPassing clouds.2 mph91%30.39 "Hg47 mi
5:00 AM41 °FClear.2 mph82%30.37 "Hg18 mi
4:00 AM41 °FOvercast.2 mph82%30.37 "Hg19 mi
Weather by CustomWeather, © 2015

See weather overviewHow to use our weather pages